Erie, PA

10:17 PM EDT on October 14, 2019 (GMT -0400)
Erie International

Weather History for KERI - August, 2019

Change the Weather History Date:

Saturday, August 10, 2019

  Actual Average Record
Temperature  
Mean Temperature 70 °F 71 °F  
Max Temperature 77 °F 79 °F 90 °F (1944)
Min Temperature 62 °F 63 °F 46 °F (1972)
Degree Days  
Heating Degree Days 0 0  
Month to date heating degree days 0 0  
Since 1 June heating degree days 38 68  
Since 1 July heating degree days 0 7  
Cooling Degree Days 5 6  
Month to date cooling degree days 82 68  
Year to date cooling degree days 547 443  
Since 1 June cooling degree days 514 404  
Growing Degree Days 22 (Base 50)    
Moisture  
Dew Point 53 °F    
Average Humidity 50    
Maximum Humidity 59    
Minimum Humidity 41    
Precipitation  
Precipitation 0.00 in 0.12 in 1.99 in (2016)
Month to date precipitation 0.89 1.17  
Year to date precipitation 23.39 23.53  
Snow  
Snow 0.00 in 0.00 in - ()
Month to date snowfall 0.0 0.0  
Since 1 June snowfall 0.0 0.0  
Since 1 July snowfall 0.0 0.0  
Snow Depth 0.00 in    
Sea Level Pressure  
Sea Level Pressure 29.96 in    
Wind  
Wind Speed 8 mph (NW)    
Max Wind Speed 15 mph    
Max Gust Speed 20 mph    
Visibility 10 miles    
Events      
T = Trace of Precipitation, MM = Missing Value Source: NWS Daily Summary

Daily Weather History Graph

Daily Weather History Graph

Search for Another Location

Airport or City:

Astronomy

Aug. 10, 2019 Rise Set
Actual Time 6:22 AM EDT 8:28 PM EDT
Civil Twilight 5:52 AM EDT 8:59 PM EDT
Nautical Twilight 5:14 AM EDT 9:36 PM EDT
Astronomical Twilight 4:33 AM EDT 10:17 PM EDT
Moon 5:11 PM EDT (8/10) 1:56 AM EDT (8/10)
Length of Visible Light 15h 06m
Length of Day
14h 05m
Waxing Gibbous, 79% of the Moon is Illuminated
Aug 10
Waxing Gibbous
Aug 15
Full
Aug 23
Last Quarter
Aug 30
New
Sep 5
First Quarter

Hourly Weather History & Observations

Time (EDT) Temp. Dew Point Humidity Pressure Visibility Wind Dir Wind Speed Gust Speed Precip Events Conditions
12:51 AM 73.9 °F 55.9 °F 53% 29.88 in 10.0 mi NNW 8.1 mph 18.4 mph N/A   Partly Cloudy
1:51 AM 73.0 °F 52.0 °F 48% 29.89 in 10.0 mi NNW 11.5 mph - N/A   Overcast
2:51 AM 70.0 °F 54.0 °F 57% 29.91 in 10.0 mi North 9.2 mph - N/A   Overcast
3:51 AM 70.0 °F 53.1 °F 55% 29.92 in 10.0 mi North 8.1 mph - N/A   Overcast
4:51 AM 69.1 °F 53.1 °F 57% 29.93 in 10.0 mi North 5.8 mph - N/A   Overcast
5:51 AM 68.0 °F 53.1 °F 59% 29.92 in 10.0 mi NNW 5.8 mph - N/A   Partly Cloudy
6:51 AM 68.0 °F 52.0 °F 56% 29.94 in 10.0 mi NW 6.9 mph - N/A   Clear
7:51 AM 70.0 °F 53.1 °F 55% 29.95 in 10.0 mi NW 8.1 mph - N/A   Clear
8:51 AM 70.0 °F 53.1 °F 55% 29.96 in 10.0 mi NNW 9.2 mph - N/A   Clear
9:51 AM 70.0 °F 54.0 °F 57% 29.99 in 10.0 mi NW 9.2 mph - N/A   Partly Cloudy
10:51 AM 72.0 °F 55.0 °F 55% 29.99 in 10.0 mi NW 8.1 mph - N/A   Scattered Clouds
11:51 AM 72.0 °F 55.0 °F 55% 29.99 in 10.0 mi NW 9.2 mph - N/A   Mostly Cloudy
12:51 PM 72.0 °F 55.0 °F 55% 29.98 in 10.0 mi NW 9.2 mph - N/A   Clear
1:51 PM 73.0 °F 57.0 °F 57% 29.98 in 10.0 mi NW 9.2 mph - N/A   Partly Cloudy
2:51 PM 75.0 °F 55.0 °F 50% 29.98 in 10.0 mi West 10.4 mph - N/A   Partly Cloudy
3:51 PM 75.0 °F 53.1 °F 46% 29.98 in 10.0 mi WNW 9.2 mph - N/A   Clear
4:51 PM 75.9 °F 52.0 °F 43% 29.97 in 10.0 mi West 9.2 mph - N/A   Clear
5:51 PM 75.9 °F 52.0 °F 43% 29.96 in 10.0 mi WNW 10.4 mph - N/A   Clear
6:51 PM 75.0 °F 50.0 °F 41% 29.97 in 10.0 mi WNW 8.1 mph - N/A   Partly Cloudy
7:51 PM 73.9 °F 48.9 °F 41% 29.98 in 10.0 mi WNW 9.2 mph - N/A   Clear
8:51 PM 73.0 °F 48.9 °F 42% 29.99 in 10.0 mi NW 10.4 mph 16.1 mph N/A   Clear
9:51 PM 73.0 °F 48.9 °F 42% 30.00 in 10.0 mi NNW 8.1 mph - N/A   Clear
10:51 PM 72.0 °F 48.9 °F 44% 30.01 in 10.0 mi NNW 6.9 mph - N/A   Clear
11:51 PM 72.0 °F 48.0 °F 43% 30.01 in 10.0 mi North 4.6 mph - N/A   Clear